Simultaneous Nadir Overpasses (SNOs) Predictions

Prediction of SNOs between NOAA-20 and AQUA Satellite Orbit:

Table of predicted SNOs for the next 14.0 days since TLE Epoch: 7/21/2023
Index Date (NOAA-20) Time (NOAA-20) Lat,Lon (NOAA-20) SZA (NOAA-20 ) Date (AQUA) Time (AQUA) Lat,Lon (AQUA) SZA (AQUA ) Distance(km) Time Diff (sec)
1 07/23/2023 16:29:37 -80.63, 21.49 109.30 07/23/2023 16:30:30 -80.63, 21.66 109.36 3.18 53
2 07/23/2023 17:20:16 80.74,-169.34 70.41 07/23/2023 17:19:50 80.74,-169.45 70.44 2.02 26
3 07/26/2023 07:04:59 -80.71, 163.84 108.95 07/26/2023 07:05:17 -80.71, 163.85 108.97 0.37 18
4 07/26/2023 07:55:40 80.78, -27.68 70.87 07/26/2023 07:54:38 80.78, -27.61 70.90 1.27 62
5 07/28/2023 20:49:41 80.64, 136.59 71.81 07/28/2023 20:50:42 80.64, 136.70 71.75 2.13 61
6 07/28/2023 21:40:21 -80.76, -54.19 108.51 07/28/2023 21:40:03 -80.75, -54.25 108.48 1.22 18
7 07/31/2023 11:25:04 80.69, -81.51 72.30 07/31/2023 11:25:28 80.69, -81.41 72.26 1.87 24
8 07/31/2023 12:15:44 -80.80, 87.75 108.02 07/31/2023 12:14:49 -80.80, 87.67 107.97 1.38 55
9 08/03/2023 01:09:46 -80.66,-108.07 107.01 08/03/2023 01:10:52 -80.67,-107.91 107.08 2.87 66



Historial Predications of SNOs between NOAA-20 and AQUA
